Regional Weather Roundup
Issued by NWS

Home | Current Version | Previous Version | Graphics & Text | Print | Product List | Glossary On
Versions: 1 2 3 4 5 6 7 8 9 10 11 12 13 14 15 16 17 18 19 20 21 22 23 24 25 26 27 28 29 30 31 32 33 34 35 36 37 38 39 40 41 42 43 44 45 46 47 48 49 50
323
ASUS43 KLMK 250010
RWRKY
KENTUCKY REGIONAL WEATHER ROUNDUP
NATIONAL WEATHER SERVICE LOUISVILLE KY
800 PM EDT TUE MAY 24 2016

NOTE "FAIR" INDICATES FEW OR NO CLOUDS BELOW 12,000 FEET
WITH NO SIGNIFICANT WEATHER AND/OR OBSTRUCTIONS TO VISIBILITY.

KYZ001>023-026-027-061>063-070>075-250100-
WESTERN AND SOUTH CENTRAL KENTUCKY

CITY           SKY/WX    TMP DP  RH WIND       PRES   REMARKS
PADUCAH        CLOUDY    74  63  68 W12       30.04F
HENDERSON      CLOUDY    79  57  47 SE6       30.02F
OWENSBORO      CLOUDY    78  61  55 SE8       30.05S
HOPKINSVILLE   PTCLDY    80  60  50 S6        30.07R
BOWLING GREEN  MOCLDY    80  57  45 CALM      30.08R
GLASGOW        MOCLDY    77  57  50 W3        30.09R
$$

KYZ024-025-028>034-038-045-046-053-250100-
NORTH CENTRAL KENTUCKY

CITY           SKY/WX    TMP DP  RH WIND       PRES   REMARKS
LOUISVILLE/SDF PTCLDY    80  53  39 SW6       30.05R
LOUISVILLE/LOU PTCLDY    81  54  39 S6        30.06S
FORT KNOX      NOT AVBL
$$

KYZ035>037-039>044-047>052-055>060-089>105-250100-
NORTHEAST KENTUCKY

CITY           SKY/WX    TMP DP  RH WIND       PRES   REMARKS
LEXINGTON      CLEAR     77  51  40 CALM      30.10R
COVINGTON      PTCLDY    76  50  40 S6        30.08R
FRANKFORT      CLEAR     79  51  37 W3        30.08R
$$

KYZ054-064>069-076>088-106>120-250100-
SOUTHEAST KENTUCKY

CITY           SKY/WX    TMP DP  RH WIND       PRES   REMARKS
JACKSON        CLEAR     75  51  43 W5        30.12S
LONDON         CLEAR     77  42  28 CALM      30.12S
SOMERSET       CLEAR     75  50  41 CALM      30.12R
MIDDLESBORO    CLEAR     75  53  45 NW3       30.13R
MONTICELLO     NOT AVBL
$$





USA.gov is the U.S. government's official web portal to all federal, state and local government web resources and services.